Flag for Canada Weather past 2 weeks in Pictou County, Nova Scotia, Canada

Now
35 °F

Chilly.


Feels Like: 24 °F
Forecast: 33 / 37 °F
Wind: 20 mph from Northeast

Location: Caribou Point

Current Time: Dec 20, 2014 at 1:34:55 PM

Latest Report: Dec 20, 2014 at 1:00 PM


Visibility: N/A

Pressure: 30.20 "Hg

Humidity: 81%

Dew point: 29 °F

Location of Pictou CountyLocation

Historic Weather in Pictou County — Graph

°F

Pictou County temperature yesterday

Maximum temperature yesterday: 37 °F (at 10:00 AM)
Minimum temperature yesterday: 31 °F (at 4:00 PM)
Average temperature yesterday: 34 °F

Past Weeks' High & Low Weather Summary

 TemperatureHumidityPressure
High48 °F (Dec 13, 12:00 AM)100% (Dec 15, 6:00 AM)30.80 "Hg (Dec 15, 6:00 AM)
Low19 °F (Dec 5, 7:00 PM)59% (Dec 5, 2:00 PM)29.36 "Hg (Dec 18, 9:00 AM)
Average33 °F87%30.10 "Hg
* Reported Dec 5 12:00 Noon — Dec 20 12:00 Noon, Pictou County, Weather by CustomWeather, © 2014

Note: Actual official high and low records may vary slightly from our data, if they occured in-between our weather recording intervals... More about our weather records

Advertising

Pictou County weather history for previous 24 hours

 ConditionsComfort  
Time TempWeatherWind HumidityBarometerVisibility
12:00 PM
Dec 20
35 °FChilly.21 mph81%30.20 "HgN/A
11:00 AM35 °FChilly.22 mph83%30.21 "HgN/A
10:00 AM36 °FChilly.20 mph80%30.20 "HgN/A
9:00 AM35 °FChilly.21 mph87%30.18 "HgN/A
8:00 AM35 °FChilly.21 mph89%30.15 "HgN/A
7:00 AM34 °FChilly.22 mph91%30.12 "HgN/A
6:00 AM34 °FChilly.21 mph91%30.09 "HgN/A
5:00 AM33 °FChilly.23 mph98%30.07 "HgN/A
4:00 AM33 °FChilly.18 mph92%30.04 "HgN/A
3:00 AM31 °FChilly.16 mph96%30.03 "HgN/A
2:00 AM32 °FChilly.17 mph89%30.01 "HgN/A
1:00 AM31 °FChilly.18 mph92%29.99 "HgN/A
12:00 AM31 °FChilly.16 mph92%29.97 "HgN/A
11:00 PM
Dec 19
32 °FChilly.18 mph89%29.95 "HgN/A
10:00 PM32 °FChilly.23 mph90%29.92 "HgN/A
9:00 PM31 °FChilly.18 mph94%29.89 "HgN/A
8:00 PM31 °FChilly.17 mph96%29.85 "HgN/A
7:00 PM32 °FChilly.18 mph100%29.82 "HgN/A
6:00 PM32 °FChilly.18 mph95%29.79 "HgN/A
5:00 PM31 °FChilly.23 mph97%29.76 "HgN/A
4:00 PM31 °FChilly.25 mph100%29.73 "HgN/A
3:00 PM33 °FChilly.25 mph93%29.70 "HgN/A
2:00 PM35 °FChilly.26 mph88%29.65 "HgN/A
1:00 PM35 °FChilly.26 mph88%29.63 "HgN/A
Weather by CustomWeather, © 2014

See weather overviewHow to use our weather pages